TimeCDT,TemperatureF,Dew PointF,Humidity,Sea Level PressureIn,VisibilityMPH,Wind Direction,Wind SpeedMPH,Gust SpeedMPH,PrecipitationIn,Events,Conditions,WindDirDegrees,DateUTC
12:15 AM,50.0,46.4,87,29.94,10.0,Calm,Calm,-,N/A,,Clear,0,2013-03-17 05:15:00
12:35 AM,50.0,46.4,87,29.94,10.0,SSW,4.6,-,N/A,,Clear,200,2013-03-17 05:35:00
12:55 AM,46.4,46.4,100,29.94,10.0,SSW,4.6,-,N/A,,Clear,210,2013-03-17 05:55:00
1:15 AM,48.2,46.4,93,29.93,10.0,SSW,5.8,-,N/A,,Clear,210,2013-03-17 06:15:00
1:35 AM,50.0,44.6,82,29.93,10.0,SSW,6.9,-,N/A,,Clear,210,2013-03-17 06:35:00
1:55 AM,51.8,44.6,76,29.93,10.0,SSW,6.9,-,N/A,,Clear,210,2013-03-17 06:55:00
2:15 AM,50.0,44.6,82,29.93,10.0,SSW,5.8,-,N/A,,Clear,210,2013-03-17 07:15:00
2:35 AM,53.6,44.6,72,29.93,10.0,SSW,9.2,-,N/A,,Clear,200,2013-03-17 07:35:00
2:55 AM,53.6,44.6,72,29.93,10.0,SSW,8.1,-,N/A,,Clear,210,2013-03-17 07:55:00
3:15 AM,55.4,46.4,72,29.93,10.0,SW,9.2,-,N/A,,Clear,220,2013-03-17 08:15:00
3:35 AM,55.4,46.4,72,29.92,10.0,SW,8.1,-,N/A,,Clear,220,2013-03-17 08:35:00
3:55 AM,55.4,46.4,72,29.92,10.0,SSW,9.2,-,N/A,,Clear,210,2013-03-17 08:55:00
4:15 AM,55.4,46.4,72,29.92,10.0,SSW,9.2,-,N/A,,Clear,210,2013-03-17 09:15:00
4:35 AM,55.4,46.4,72,29.92,10.0,SSW,8.1,-,N/A,,Clear,210,2013-03-17 09:35:00
4:55 AM,55.4,46.4,72,29.92,10.0,SSW,9.2,-,N/A,,Clear,210,2013-03-17 09:55:00
5:15 AM,55.4,46.4,72,29.93,10.0,SSW,9.2,-,N/A,,Clear,210,2013-03-17 10:15:00
5:35 AM,53.6,46.4,77,29.94,10.0,SSW,9.2,-,N/A,,Clear,210,2013-03-17 10:35:00
5:55 AM,53.6,46.4,77,29.94,10.0,SSW,8.1,-,N/A,,Clear,210,2013-03-17 10:55:00
6:15 AM,53.6,46.4,77,29.95,10.0,SSW,6.9,-,N/A,,Clear,210,2013-03-17 11:15:00
6:35 AM,53.6,46.4,77,29.95,10.0,SSW,6.9,-,N/A,,Clear,210,2013-03-17 11:35:00
6:55 AM,53.6,46.4,77,29.96,10.0,SSW,6.9,-,N/A,,Clear,200,2013-03-17 11:55:00
7:15 AM,53.6,46.4,77,29.97,10.0,SSW,8.1,-,N/A,,Clear,210,2013-03-17 12:15:00
7:35 AM,53.6,48.2,82,29.97,10.0,SSW,4.6,-,N/A,,Clear,200,2013-03-17 12:35:00
7:55 AM,53.6,50.0,88,29.97,10.0,SSW,3.5,-,N/A,,Clear,200,2013-03-17 12:55:00
8:15 AM,55.4,50.0,82,29.98,10.0,SSW,6.9,-,N/A,,Clear,210,2013-03-17 13:15:00
8:35 AM,57.2,50.0,77,29.98,10.0,SSW,9.2,-,N/A,,Clear,210,2013-03-17 13:35:00
8:55 AM,59.0,50.0,72,29.98,10.0,SSW,6.9,-,N/A,,Clear,210,2013-03-17 13:55:00
9:15 AM,60.8,51.8,72,29.99,10.0,SW,8.1,-,N/A,,Scattered Clouds,220,2013-03-17 14:15:00
9:35 AM,60.8,51.8,72,29.99,10.0,SSW,8.1,-,N/A,,Scattered Clouds,210,2013-03-17 14:35:00
9:55 AM,60.8,51.8,72,29.98,10.0,SSW,8.1,-,N/A,,Mostly Cloudy,200,2013-03-17 14:55:00
10:15 AM,62.6,51.8,68,29.98,10.0,WSW,6.9,-,N/A,,Mostly Cloudy,240,2013-03-17 15:15:00
10:35 AM,64.4,51.8,64,29.98,10.0,West,16.1,19.6,N/A,,Mostly Cloudy,260,2013-03-17 15:35:00
10:55 AM,66.2,51.8,60,29.97,10.0,WSW,10.4,18.4,N/A,,Scattered Clouds,250,2013-03-17 15:55:00
11:15 AM,64.4,50.0,59,29.96,10.0,West,11.5,21.9,N/A,,Clear,260,2013-03-17 16:15:00
11:35 AM,68.0,50.0,52,29.95,10.0,WSW,10.4,17.3,N/A,,Clear,240,2013-03-17 16:35:00
11:55 AM,68.0,48.2,49,29.95,10.0,WSW,12.7,17.3,N/A,,Scattered Clouds,250,2013-03-17 16:55:00
12:15 PM,68.0,46.4,46,29.94,10.0,SW,10.4,16.1,N/A,,Scattered Clouds,220,2013-03-17 17:15:00
12:35 PM,68.0,48.2,49,29.93,10.0,SW,8.1,17.3,N/A,,Mostly Cloudy,220,2013-03-17 17:35:00
12:55 PM,69.8,46.4,43,29.93,10.0,SW,10.4,-,N/A,,Mostly Cloudy,230,2013-03-17 17:55:00
1:15 PM,68.0,46.4,46,29.92,10.0,SSW,11.5,18.4,N/A,,Mostly Cloudy,200,2013-03-17 18:15:00
1:35 PM,69.8,44.6,40,29.92,10.0,SSW,13.8,21.9,N/A,,Scattered Clouds,210,2013-03-17 18:35:00
1:55 PM,69.8,44.6,40,29.91,10.0,WSW,10.4,16.1,N/A,,Scattered Clouds,240,2013-03-17 18:55:00
2:15 PM,69.8,44.6,40,29.90,10.0,SW,10.4,-,N/A,,Clear,220,2013-03-17 19:15:00
2:35 PM,69.8,44.6,40,29.89,10.0,SSW,13.8,-,N/A,,Clear,210,2013-03-17 19:35:00
2:55 PM,69.8,44.6,40,29.88,10.0,WSW,9.2,16.1,N/A,,Clear,240,2013-03-17 19:55:00
3:15 PM,69.8,42.8,38,29.88,10.0,SW,9.2,-,N/A,,Clear,220,2013-03-17 20:15:00
3:35 PM,69.8,44.6,40,29.87,10.0,SSW,12.7,-,N/A,,Clear,200,2013-03-17 20:35:00
3:55 PM,69.8,44.6,40,29.86,10.0,SW,9.2,-,N/A,,Clear,220,2013-03-17 20:55:00
4:15 PM,69.8,44.6,40,29.85,10.0,SW,12.7,-,N/A,,Clear,220,2013-03-17 21:15:00
4:35 PM,69.8,44.6,40,29.85,10.0,SW,13.8,17.3,N/A,,Clear,230,2013-03-17 21:35:00
4:55 PM,69.8,44.6,40,29.85,10.0,SSW,13.8,17.3,N/A,,Clear,200,2013-03-17 21:55:00
5:15 PM,69.8,44.6,40,29.85,10.0,SSW,13.8,18.4,N/A,,Clear,200,2013-03-17 22:15:00
5:35 PM,69.8,46.4,43,29.85,10.0,South,17.3,21.9,N/A,,Clear,190,2013-03-17 22:35:00
5:55 PM,68.0,48.2,49,29.85,10.0,South,10.4,-,N/A,,Scattered Clouds,190,2013-03-17 22:55:00
6:15 PM,68.0,46.4,46,29.85,10.0,SSW,9.2,-,N/A,,Clear,200,2013-03-17 23:15:00
6:35 PM,66.2,46.4,49,29.85,10.0,South,12.7,-,N/A,,Clear,180,2013-03-17 23:35:00
6:55 PM,64.4,46.4,52,29.86,10.0,South,9.2,-,N/A,,Clear,190,2013-03-17 23:55:00
7:15 PM,64.4,46.4,52,29.85,10.0,South,8.1,-,N/A,,Clear,190,2013-03-18 00:15:00
7:35 PM,60.8,46.4,59,29.85,10.0,South,5.8,-,N/A,,Clear,180,2013-03-18 00:35:00
7:55 PM,60.8,46.4,59,29.85,10.0,SSE,4.6,-,N/A,,Clear,160,2013-03-18 00:55:00
8:15 PM,59.0,46.4,63,29.86,10.0,SSE,3.5,-,N/A,,Clear,150,2013-03-18 01:15:00
8:35 PM,55.4,46.4,72,29.86,10.0,SSE,3.5,-,N/A,,Clear,160,2013-03-18 01:35:00
9:15 PM,55.4,48.2,77,29.87,10.0,SSE,5.8,-,N/A,,Scattered Clouds,160,2013-03-18 02:15:00
9:35 PM,59.0,50.0,72,29.86,10.0,South,9.2,-,N/A,,Mostly Cloudy,170,2013-03-18 02:35:00
9:55 PM,60.8,50.0,68,29.86,10.0,South,10.4,-,N/A,,Overcast,170,2013-03-18 02:55:00
10:15 PM,62.6,50.0,63,29.85,10.0,South,10.4,-,N/A,,Overcast,170,2013-03-18 03:15:00
10:35 PM,60.8,50.0,68,29.85,10.0,South,9.2,-,N/A,,Overcast,170,2013-03-18 03:35:00
10:55 PM,62.6,50.0,63,29.85,10.0,South,10.4,-,N/A,,Overcast,180,2013-03-18 03:55:00
11:15 PM,62.6,51.8,68,29.84,10.0,South,13.8,-,N/A,,Overcast,180,2013-03-18 04:15:00
11:35 PM,62.6,51.8,68,29.84,10.0,South,11.5,-,N/A,,Overcast,190,2013-03-18 04:35:00
11:55 PM,62.6,53.6,72,29.83,10.0,South,15.0,18.4,N/A,,Overcast,180,2013-03-18 04:55:00